TimeEST,TemperatureF,Dew PointF,Humidity,Sea Level PressureIn,VisibilityMPH,Wind Direction,Wind SpeedMPH,Gust SpeedMPH,PrecipitationIn,Events,Conditions,WindDirDegrees,DateUTC
12:53 AM,43.0,35.1,74,29.94,10.0,South,4.6,-,N/A,,Overcast,190,2012-12-07 05:53:00
1:53 AM,42.1,35.1,76,29.93,10.0,SSW,5.8,-,N/A,,Mostly Cloudy,200,2012-12-07 06:53:00
2:53 AM,42.1,36.0,79,29.93,10.0,SSW,4.6,-,N/A,,Overcast,200,2012-12-07 07:53:00
3:53 AM,46.0,41.0,83,29.92,8.0,SW,6.9,-,N/A,,Overcast,220,2012-12-07 08:53:00
4:53 AM,43.0,39.0,86,29.91,5.0,Calm,Calm,-,0.00,Rain,Light Rain,0,2012-12-07 09:53:00
5:53 AM,45.0,39.9,82,29.93,5.0,WSW,4.6,-,0.01,Rain,Light Rain,250,2012-12-07 10:53:00
6:26 AM,44.6,39.2,81,29.93,5.0,West,4.6,-,0.02,Rain,Light Rain,270,2012-12-07 11:26:00
6:53 AM,45.0,39.9,82,29.94,6.0,West,3.5,-,0.03,Rain,Light Rain,270,2012-12-07 11:53:00
7:03 AM,44.6,39.2,81,29.92,6.0,Calm,Calm,-,0.00,,Haze,0,2012-12-07 12:03:00
7:18 AM,44.6,39.2,81,29.93,6.0,Calm,Calm,-,0.00,,Haze,0,2012-12-07 12:18:00
7:53 AM,44.1,39.9,85,29.94,6.0,NW,3.5,-,0.00,,Overcast,320,2012-12-07 12:53:00
8:53 AM,44.1,39.0,82,29.95,5.0,NNW,3.5,-,N/A,,Haze,330,2012-12-07 13:53:00
9:53 AM,45.0,39.0,80,29.97,7.0,NNW,3.5,-,N/A,,Overcast,340,2012-12-07 14:53:00
10:29 AM,46.4,39.2,76,29.96,7.0,NW,3.5,-,N/A,,Overcast,320,2012-12-07 15:29:00
10:53 AM,46.0,39.0,76,29.97,8.0,NW,5.8,-,N/A,,Mostly Cloudy,310,2012-12-07 15:53:00
11:39 AM,46.4,37.4,71,29.95,7.0,North,3.5,-,N/A,,Overcast,360,2012-12-07 16:39:00
11:53 AM,46.0,37.9,73,29.95,7.0,NNE,3.5,-,N/A,,Overcast,20,2012-12-07 16:53:00
12:26 PM,46.4,37.4,71,29.93,7.0,Calm,Calm,-,N/A,,Overcast,0,2012-12-07 17:26:00
12:43 PM,46.4,37.4,71,29.93,8.0,Variable,3.5,-,N/A,,Overcast,0,2012-12-07 17:43:00
12:53 PM,46.9,37.0,68,29.94,8.0,Calm,Calm,-,N/A,,Overcast,0,2012-12-07 17:53:00
1:53 PM,46.9,37.0,68,29.93,7.0,Calm,Calm,-,N/A,,Overcast,0,2012-12-07 18:53:00
2:53 PM,46.9,36.0,66,29.93,8.0,Variable,3.5,-,N/A,,Overcast,0,2012-12-07 19:53:00
3:15 PM,46.4,35.6,66,29.91,10.0,ENE,3.5,-,N/A,,Mostly Cloudy,70,2012-12-07 20:15:00
3:53 PM,46.9,36.0,66,29.93,10.0,NE,4.6,-,N/A,,Mostly Cloudy,50,2012-12-07 20:53:00
4:53 PM,45.0,36.0,71,29.93,9.0,East,4.6,-,N/A,,Overcast,100,2012-12-07 21:53:00
5:53 PM,44.1,37.0,76,29.93,8.0,Calm,Calm,-,N/A,,Overcast,0,2012-12-07 22:53:00
6:53 PM,44.1,36.0,73,29.92,10.0,Calm,Calm,-,N/A,,Overcast,0,2012-12-07 23:53:00
7:53 PM,44.1,36.0,73,29.93,10.0,Calm,Calm,-,N/A,,Mostly Cloudy,0,2012-12-08 00:53:00
8:15 PM,44.6,35.6,71,29.91,10.0,Calm,Calm,-,N/A,,Mostly Cloudy,0,2012-12-08 01:15:00
8:53 PM,44.1,36.0,73,29.92,10.0,Calm,Calm,-,N/A,,Overcast,0,2012-12-08 01:53:00
9:32 PM,42.8,35.6,76,29.89,7.0,Calm,Calm,-,N/A,,Overcast,0,2012-12-08 02:32:00
9:53 PM,43.0,36.0,76,29.91,7.0,NE,3.5,-,N/A,,Overcast,40,2012-12-08 02:53:00
10:53 PM,43.0,36.0,76,29.91,7.0,Calm,Calm,-,N/A,,Overcast,0,2012-12-08 03:53:00
11:53 PM,43.0,34.0,71,29.89,10.0,NE,3.5,-,N/A,,Overcast,40,2012-12-08 04:53:00